Home   Weather   Kazan   Past weeks
Flag for Russia

Past Weather in Kazan, Russia — Yesterday and Last 2 Weeks

Now
48 °F

Partly sunny.


Feels Like: 44 °F
Forecast: 52 / 35 °F
Wind: 10 mph from Northwest

Location: Kazan'

Current Time: Oct 22, 2019 at 9:44:22 am

Latest Report: Oct 22, 2019 at 9:00 am


Visibility: N/A

Pressure: 30.04 "Hg

Humidity: 71%

Dew Point: 39 °F

Location of KazanLocation

Past Weather in Kazan — Graph

°F

Kazan Temperature Yesterday

Maximum temperature yesterday: 55 °F (at 12:30 pm)
Minimum temperature yesterday: 45 °F (at 12:30 am)
Average temperature yesterday: 51 °F

High & Low Weather Summary for the Past Weeks

 TemperatureHumidityPressure
High64 °F (Oct 7, 12:30 pm)100% (Oct 9, 7:00 am)30.39 "Hg (Oct 9, 7:00 am)
Low32 °F (Oct 9, 8:30 pm)24% (Oct 7, 1:00 pm)29.50 "Hg (Oct 7, 6:00 pm)
Average44 °F81%30.00 "Hg
* Reported Oct 7 8:00 am — Oct 22 8:30 am, Kazan. Weather by CustomWeather, © 2019

Note: Actual official high and low records may vary slightly from our data, if they occured in-between our weather recording intervals... More about our weather records

Advertising

Kazan Weather History for the Previous 24 Hours

Scroll right to see more
 ConditionsComfort  
Time TempWeatherWind HumidityBarometerVisibility
8:30 am
Tue, Oct 22
48 °FPartly sunny.17 mph71%30.04 "HgN/A
8:00 am48 °FPartly sunny.15 mph82%30.04 "HgN/A
7:30 am48 °FPartly sunny.15 mph82%30.04 "HgN/A
7:00 am48 °FPartly sunny.8 mph87%30.01 "HgN/A
6:30 am48 °FOvercast.6 mph87%30.01 "HgN/A
6:00 am48 °FPassing clouds.3 mph87%29.98 "HgN/A
5:30 am48 °FPassing clouds.6 mph87%29.98 "HgN/A
5:00 am46 °FPassing clouds.10 mph93%29.98 "HgN/A
4:30 am48 °FPassing clouds.8 mph87%29.98 "HgN/A
4:00 am48 °FPassing clouds.8 mph87%29.98 "HgN/A
3:30 am48 °FPassing clouds.15 mph87%29.95 "HgN/A
3:00 am50 °FPassing clouds.10 mph88%29.95 "HgN/A
2:30 am50 °FPassing clouds.13 mph94%29.95 "HgN/A
2:00 am52 °FSprinkles. Passing clouds.13 mph88%29.92 "HgN/A
1:30 am54 °FSprinkles. Passing clouds.10 mph88%29.92 "Hg5 mi
1:00 am54 °FSprinkles. Passing clouds.15 mph88%29.92 "Hg4 mi
12:30 am54 °FSprinkles. Passing clouds.15 mph88%29.92 "Hg5 mi
12:00 am54 °FSprinkles. Passing clouds.10 mph88%29.92 "Hg6 mi
11:30 pm
Mon, Oct 21
54 °FSprinkles. Passing clouds.10 mph88%29.92 "Hg5 mi
11:00 pm54 °FSprinkles. Passing clouds.10 mph88%29.92 "Hg5 mi
10:30 pm55 °FSprinkles. Passing clouds.10 mph77%29.92 "HgN/A
10:00 pm54 °FPassing clouds.10 mph82%29.92 "HgN/A
9:30 pm54 °FSprinkles. Passing clouds.10 mph82%29.95 "Hg6 mi
9:00 pm54 °FClear.10 mph77%29.95 "Hg10 mi
8:30 pm54 °FClear.10 mph77%29.98 "Hg10 mi
8:00 pm52 °FClear.10 mph82%29.98 "Hg10 mi
7:30 pm52 °FClear.10 mph82%30.01 "Hg10 mi
7:00 pm52 °FClear.15 mph82%30.01 "Hg10 mi
6:30 pm52 °FClear.15 mph82%30.04 "Hg10 mi
6:00 pm52 °FClear.15 mph82%30.04 "Hg10 mi
5:30 pm52 °FClear.15 mph82%30.07 "Hg6 mi
5:00 pm52 °FClear.15 mph88%30.07 "Hg10 mi
4:30 pm52 °FClear.13 mph88%30.07 "Hg10 mi
4:00 pm52 °FSunny.15 mph88%30.07 "Hg10 mi
3:30 pm52 °FSunny.13 mph88%30.09 "Hg10 mi
3:00 pm54 °FSunny.10 mph82%30.12 "Hg10 mi
2:30 pm54 °FSunny.10 mph82%30.12 "Hg10 mi
2:00 pm55 °FSunny.15 mph77%30.15 "Hg10 mi
1:30 pm55 °FSunny.15 mph82%30.15 "Hg10 mi
1:00 pm55 °FSunny.13 mph82%30.15 "Hg10 mi
12:30 pm55 °FSunny.10 mph77%30.15 "Hg10 mi
12:00 pm54 °FSunny.15 mph82%30.18 "Hg10 mi
11:30 am54 °FSunny.13 mph82%30.18 "Hg10 mi
11:00 am52 °FSunny.10 mph88%30.18 "Hg10 mi
10:30 am52 °FSunny.10 mph88%30.18 "Hg10 mi
10:00 am52 °FSunny.10 mph82%30.18 "Hg10 mi
9:30 am50 °FClear.13 mph94%30.18 "Hg6 mi
9:00 am50 °FClear.10 mph94%30.18 "Hg5 mi
Weather by CustomWeather, © 2019

See weather overview